GW6161 Weather Reports


time (UTC)temp
F
wind
direction
speed
knots
gust
knots
rain 1hr
in
rain 24hr
in
rain mn
in
humidity
%
barometer
mb
20260504234730 75 291 0.9 1.7 0.00 0.00 0.00 43 995.9
20260504233729 76 278 0.0 1.7 0.00 0.00 0.00 41 996.0
20260504232728 76 248 0.0 1.7 0.00 0.00 0.00 41 996.1
20260504231728 77 284 0.9 2.6 0.00 0.00 0.00 40 996.1
20260504230726 77 285 0.9 3.5 0.00 0.00 0.00 42 996.1
20260504225723 77 264 1.7 3.5 0.00 0.00 0.00 41 996.2
20260504224722 78 272 3.5 4.3 0.00 0.00 0.00 40 996.3
20260504223722 78 267 5.2 5.2 0.00 0.00 0.00 39 996.4
20260504222720 78 264 2.6 2.6 0.00 0.00 0.00 40 996.3
20260504221720 78 246 1.7 4.3 0.00 0.00 0.00 39 996.3
20260504220719 79 13 0.9 2.6 0.00 0.00 0.00 37 996.5
20260504215719 80 266 2.6 4.3 0.00 0.00 0.00 37 996.6
20260504214718 80 273 1.7 4.3 0.00 0.00 0.00 36 996.6
20260504213717 82 264 1.7 3.5 0.00 0.00 0.00 36 996.7
20260504212717 81 257 0.9 5.2 0.00 0.00 0.00 36 996.9
20260504211716 81 253 3.5 7.8 0.00 0.00 0.00 34 996.7
20260504210716 82 258 4.3 4.3 0.00 0.00 0.00 34 996.7
20260504205716 81 265 5.2 5.2 0.00 0.00 0.00 30 996.9
20260504204712 80 258 4.3 7.8 0.00 0.00 0.00 36 997.0
20260504203708 81 195 0.0 5.2 0.00 0.00 0.00 35 997.1
20260504202705 82 266 4.3 4.3 0.00 0.00 0.00 36 997.0
20260504201700 81 337 2.6 7.8 0.00 0.00 0.00 33 997.1
20260504200655 81 256 1.7 5.2 0.00 0.00 0.00 36 997.3
20260504195653 81 297 1.7 2.6 0.00 0.00 0.00 39 997.4
20260504194652 80 305 1.7 7.8 0.00 0.00 0.00 40 997.4
20260504193650 80 263 5.2 7.0 0.00 0.00 0.00 38 997.8
20260504192646 80 350 1.7 4.3 0.00 0.00 0.00 40 997.6
20260504191642 80 266 1.7 2.6 0.00 0.00 0.00 43 997.7
20260504190640 79 265 1.7 3.5 0.00 0.00 0.00 41 998.0
20260504185639 79 271 1.7 3.5 0.00 0.00 0.00 44 998.1
20260504184638 79 269 1.7 9.6 0.00 0.00 0.00 45 998.3
20260504183636 79 263 3.5 7.0 0.00 0.00 0.00 42 998.5
20260504182631 78 262 3.5 5.2 0.00 0.00 0.00 45 998.7
20260504181631 77 264 2.6 2.6 0.00 0.00 0.00 44 999.0
20260504180628 78 265 5.2 7.0 0.00 0.00 0.00 42 998.8
20260504175623 79 237 0.0 4.3 0.00 0.00 0.00 46 999.0
20260504174618 78 284 2.6 2.6 0.00 0.00 0.00 45 999.0
20260504173617 77 274 0.9 1.7 0.00 0.00 0.00 45 999.2
20260504172616 77 252 2.6 5.2 0.00 0.00 0.00 45 999.3
20260504171615 75 263 1.7 7.0 0.00 0.00 0.00 45 999.5
20260504170614 75 266 3.5 3.5 0.00 0.00 0.00 47 999.6
20260504150548 69 246 1.7 5.2 0.00 0.00 0.00 53 1000.7
20260504140534 65 230 0.0 1.7 0.00 0.00 0.00 57 1001.0
20260504130527 58 253 1.7 2.6 0.00 0.00 0.00 69 1001.1
20260504110508 52 73 0.0 1.7 0.00 0.00 0.00 75 1000.2
20260504100453 53 113 0.0 0.9 0.00 0.00 0.00 72 1000.2
20260504081429 53 119 0.0 0.9 0.00 0.00 0.00 74 999.9
20260504080428 53 48 0.0 0.9 0.00 0.00 0.00 75 1000.1
20260504050340 54 65 0.0 0.9 0.00 0.00 0.00 72 1001.5
20260504045337 55 77 0.0 0.0 0.00 0.00 0.00 70 1001.5
20260504044332 55 66 0.9 0.9 0.00 0.00 0.00 70 1001.2
20260504043332 55 60 0.0 1.7 0.00 0.00 0.00 67 1001.3
20260504042331 56 50 0.0 0.0 0.00 0.00 0.00 64 1001.4
20260504041330 56 124 0.0 1.7 0.00 0.00 0.00 64 1001.4
20260504040330 56 100 0.0 1.7 0.00 0.00 0.00 66 1001.3
20260504035329 56 44 0.0 0.9 0.00 0.00 0.00 60 1001.6
20260504034324 57 119 0.0 0.0 0.00 0.00 0.00 62 1001.9
20260504033319 57 67 0.0 0.9 0.00 0.00 0.00 57 1001.8
20260504032318 57 60 1.7 1.7 0.00 0.00 0.00 58 1002.0
20260504031318 57 66 1.7 1.7 0.00 0.00 0.00 58 1002.0
20260504030317 56 66 0.0 1.7 0.00 0.00 0.00 61 1002.1
20260504025316 56 54 0.0 0.9 0.00 0.00 0.00 65 1002.3
20260504024315 57 32 0.0 0.9 0.00 0.00 0.00 65 1002.2
20260504023314 57 58 0.9 0.9 0.00 0.00 0.00 58 1002.1
20260504022313 57 55 0.9 0.9 0.00 0.00 0.00 56 1002.0
20260504021313 58 66 0.0 0.9 0.00 0.00 0.00 58 1002.1
20260504020313 59 37 0.0 0.0 0.00 0.00 0.00 54 1001.5
20260504015311 59 69 0.0 1.7 0.00 0.00 0.00 55 1001.3
20260504014309 59 68 0.9 1.7 0.00 0.00 0.00 55 1001.4
20260504013305 59 50 0.0 1.7 0.00 0.00 0.00 54 1001.1
20260504012259 59 46 0.9 1.7 0.00 0.00 0.00 56 1001.1
20260504011258 60 73 0.0 1.7 0.00 0.00 0.00 53 1000.9
20260504010255 60 77 0.0 1.7 0.00 0.00 0.00 57 1001.1
20260504005255 60 81 1.7 1.7 0.00 0.00 0.00 54 1001.0
20260504004250 61 72 0.9 1.7 0.00 0.00 0.00 54 1001.1
20260504003249 62 66 0.9 1.7 0.00 0.00 0.00 53 1001.1
20260504002248 62 68 0.9 1.7 0.00 0.00 0.00 51 1001.0
20260504001248 63 47 0.9 1.7 0.00 0.00 0.00 53 1001.1
20260504000248 64 36 0.0 0.9 0.00 0.00 0.00 50 1001.2
20260503235243 65 47 0.0 1.7 0.00 0.00 0.00 47 1001.3